This demonstration page uses our WeatherBlox Daily Observations layout. Learn more.

Left ArrowRight Arrow

34.16533, -84.80231

Hourly Observations for December 21, 2017

Temp ( °F °C ) Dew Point ( °F °C ) Humidity (%) Winds ( mph kmh ) Pressure ( in mb ) Visibility ( mi km ) Precip ( " mm )
12:46 am 00:46 Cloudy 58 14.4 58 14.4 100 100 Calm 29.94 1014 10 16 0.00 0.00
12:53 am 00:53 Cloudy 58 14.4 58 14.4 100 100 Calm 29.91 1013 10 16 0.00 0.00
1:11 am 01:11 Cloudy 58 14.4 58 14.4 100 100 E 3 6 29.94 1014 10 16 0.00 0.00
1:53 am 01:53 Cloudy 58 14.4 58 14.4 100 100 E 5 7 29.92 1013 10 16 0.00 0.00
2:53 am 02:53 Cloudy 57 13.9 57 13.9 100 100 E 8 13 29.94 1014 9 14 0.00 0.00
3:42 am 03:42 Cloudy 56 13.3 56 13.3 100 100 E 5 7 29.97 1015 10 16 0.00 0.00
3:53 am 03:53 Cloudy 56 13.3 56 13.3 100 100 VRB 6 9 29.95 1014 10 16 0.00 0.00
4:53 am 04:53 Cloudy 53 11.7 53 11.7 100 100 ENE 6 9 29.97 1015 8 13 0.00 0.00
5:53 am 05:53 Cloudy 53 11.7 53 11.7 100 100 NE 3 6 30.00 1016 10 16 0.00 0.00
6:53 am 06:53 Cloudy 52 11.1 52 11.1 100 100 E 6 9 30.02 1017 10 16 0.00 0.00
7:53 am 07:53 Cloudy 52 11.1 51 10.6 97 97 E 7 11 30.05 1018 10 16 0.00 0.00
8:53 am 08:53 Cloudy 52 11.1 50 10 93 93 VRB 3 6 30.07 1018 10 16 0.00 0.00
9:05 am 09:05 Cloudy 52 11.1 50 10 93 93 E 7 11 30.09 1019 10 16 0.00 0.00
9:53 am 09:53 Cloudy 54 12.2 50 10 87 87 VRB 6 9 30.09 1019 10 16 0.00 0.00
10:21 am 10:21 Cloudy 54 12.2 50 10 87 87 ESE 9 15 30.12 1020 10 16 0.00 0.00
10:53 am 10:53 Cloudy 55 12.8 50 10 83 83 ESE 9 15 30.11 1020 10 16 0.00 0.00
11:53 am 11:53 Cloudy 55 12.8 50 10 83 83 ESE 9 15 30.10 1019 10 16 0.00 0.00
12:53 pm 12:53 Cloudy 55 12.8 51 10.6 87 87 ESE 9 15 30.07 1018 10 16 0.00 0.00
1:53 pm 13:53 Cloudy 54 12.2 52 11.1 93 93 SE 10 17 30.08 1019 10 16 0.00 0.00
2:53 pm 14:53 Cloudy 54 12.2 53 11.7 97 97 VRB 3 6 30.08 1019 10 16 0.00 0.00
3:34 pm 15:34 Cloudy with Mist and Fog 54 12.2 53 11.7 97 97 ESE 5 7 30.12 1020 6 10 0.00 0.00
3:53 pm 15:53 Cloudy with Mist and Fog 54 12.2 53 11.7 97 97 ESE 3 6 30.10 1019 5 8 0.00 0.00
4:27 pm 16:27 Cloudy with Mist and Fog 53 11.7 53 11.7 100 100 E 3 6 30.12 1020 2 3 0.00 0.00
4:53 pm 16:53 Cloudy with Mist and Fog 53 11.7 53 11.7 100 100 VRB 5 7 30.11 1020 3 4 0.00 0.00
5:21 pm 17:21 Cloudy with Mist and Fog 53 11.7 53 11.7 100 100 E 5 7 30.12 1020 4 6 0.00 0.00
5:33 pm 17:33 Cloudy 52 11.1 52 11.1 100 100 E 3 6 30.12 1020 7 11 0.00 0.00
5:42 pm 17:42 Cloudy with Mist and Fog 52 11.1 52 11.1 100 100 VRB 5 7 30.12 1020 6 10 0.00 0.00
5:53 pm 17:53 Cloudy 52 11.1 52 11.1 100 100 ESE 5 7 30.11 1020 7 11 0.00 0.00
6:21 pm 18:21 Cloudy 53 11.7 53 11.7 100 100 VRB 6 9 30.12 1020 10 16 0.00 0.00
6:46 pm 18:46 Cloudy 53 11.7 53 11.7 100 100 VRB 3 6 30.12 1020 10 16 0.00 0.00
6:53 pm 18:53 Cloudy 53 11.7 52 11.1 96 96 VRB 6 9 30.12 1020 10 16 0.00 0.00
7:53 pm 19:53 Cloudy 53 11.7 52 11.1 96 96 VRB 5 7 30.13 1020 10 16 0.00 0.00
8:53 pm 20:53 Cloudy 53 11.7 52 11.1 96 96 VRB 5 7 30.13 1020 10 16 0.00 0.00
9:53 pm 21:53 Cloudy 53 11.7 52 11.1 96 96 SE 8 13 30.14 1021 10 16 0.00 0.00
10:53 pm 22:53 Cloudy 53 11.7 52 11.1 96 96 SE 8 13 30.15 1021 10 16 0.00 0.00
11:53 pm 23:53 Cloudy 53 11.7 52 11.1 96 96 ESE 5 7 30.15 1021 10 16 0.00 0.00

Powered by AerisWeather